Regional Weather Roundup
Issued by NWS

Home | Current Version | Previous Version | Graphics & Text | Print | Product List | Glossary On
Versions: 1 2 3 4 5 6 7 8 9 10 11 12 13 14 15 16 17 18 19 20 21 22 23 24 25 26 27 28 29 30 31 32 33 34 35 36 37 38 39 40 41 42 43 44 45 46 47 48 49 50
000
ASUS43 KMPX 261601
RWRMN
WEATHER ROUNDUP FOR MINNESOTA
NATIONAL WEATHER SERVICE TWIN CITIES/CHANHASSEN MN
1100 AM CDT THU MAY 26 2016


NOTE: "FAIR" INDICATES FEW OR NO CLOUDS BELOW 12,000 FEET WITH NO
SIGNIFICANT WEATHER AND/OR OBSTRUCTIONS TO VISIBILITY. N/A MEANS
CURRENT SKY AND/OR WEATHER CONDITIONS ARE NOT AVAILABLE.

MNZ060>063-068>070-261700-
   Twin Cities Metro

CITY           SKY/WX    TMP DP  RH WIND       PRES   REMARKS
TWIN CITIES    SUNNY     72  57  59 W13       29.80F
ST PAUL        SUNNY     72  59  63 SW7       29.80S
CRYSTAL        SUNNY     73  56  54 W8        29.78S
BLAINE         SUNNY     73  57  56 W7        29.79S
EDEN PRAIRIE   SUNNY     74  58  57 SW13      29.80S
SOUTH ST PAUL  SUNNY     72  57  59 W9        29.80S
LAKE ELMO      FAIR      72  59  64 SW9       29.82S
$$
MNZ001>005-007-008-013>017-022>024-027-028-261700-
   Northwest Minnesota

CITY           SKY/WX    TMP DP  RH WIND       PRES   REMARKS
BEMIDJI        MOSUNNY   64  55  73 S3        29.75S
HALLOCK        CLOUDY    64  57  77 SW14      29.68S
ROSEAU         CLOUDY    63  55  77 SW15      29.70S
WARROAD        CLOUDY    63  57  82 SW9       29.70S
THIEF RVR FALL PTSUNNY   61  54  77 W10       29.75S
CROOKSTON      PTSUNNY   63  57  82 W9        29.75R
FOSSTON        PTSUNNY   63  59  88 SW10      29.76R
DETROIT LAKES  CLOUDY    63  55  77 SW10      29.79R
MOORHEAD       CLOUDY    59  57  94 W7        29.79R FOG
PARK RAPIDS    SUNNY     69  53  56 W6        29.76S
MAHNOMEN       PTSUNNY   63  57  81 SW9       29.76R
$$
MNZ006-009>011-018-025>026-261700-
   North Central Minnesota

CITY           SKY/WX    TMP DP  RH WIND       PRES   REMARKS
BAUDETTE       PTSUNNY   64  55  72 SW8       29.71F
FLAG ISLAND    CLOUDY    57  55  94 S15       29.69S
INTL FALLS     CLOUDY    60  56  86 SW7       29.75F
WASKISH        PTSUNNY   63  57  82 W6        29.74F
BIG FORK       CLOUDY    61  57  88 SW6       29.77F
LONGVILLE      PTSUNNY   64  57  77 SW6       29.77S
GRAND RAPIDS   CLOUDY    58  55  90 SE3       29.79F
CRANE LAKE     CLOUDY    57  55  94 S7        29.78F
ORR            CLOUDY    57  52  82 CALM      29.74F
COOK           CLOUDY    61  54  77 W5        29.77F
WALKER         PTSUNNY   63  56  78 CALM      29.76F
$$
MNZ012-019>021-037-261700-
   Northeast Minnesota

CITY           SKY/WX    TMP DP  RH WIND       PRES   REMARKS
DULUTH         FOG       53  52  96 E6        29.80S VSB 3/4
ELY            CLOUDY    61  55  82 S6        29.78S
HIBBING        CLOUDY    55  54  96 VRB5      29.77F
EVELETH        CLOUDY    59  55  88 SW8       29.79S
DULUTH HARBOR  CLOUDY    45  43  93 N3        29.82S FOG
TWO HARBORS    CLOUDY    55  52  88 E7        29.79S FOG
GRAND MARAIS     N/A     47  45  93 NE8       29.81F
G MARAIS ARPRT CLOUDY    57  52  82 CALM      29.83R
$$
MNZ029>031-032-039>041-046>048-054>057-064-261700-
   West Central Minnesota

CITY           SKY/WX    TMP DP  RH WIND       PRES   REMARKS
FERGUS FALLS   PTSUNNY   63  55  77 W12       29.78R
WHEATON        SUNNY     72  54  53 W13       29.82S
MORRIS         SUNNY     70  50  49 W18       29.80F
ALEXANDRIA     PTSUNNY   68  54  60 W14       29.82R
ELBOW LAKE     FAIR      66  53  62 SW16      29.81S
WADENA         SUNNY     66  55  68 SW15      29.78R
GLENWOOD       SUNNY     68  55  64 SW14      29.82S
APPLETON       SUNNY     72  48  43 W13       29.81S
ORTONVILLE     SUNNY     72  45  37 NW10      29.81S
MADISON        SUNNY     72  50  46 NW13      29.82S
WILLMAR        FAIR      70  55  60 W13       29.83S
$$
MNZ033>034-036-042>043-049>051-058-059-261700-
   Central Minnesota

CITY           SKY/WX    TMP DP  RH WIND       PRES   REMARKS
ST CLOUD       SUNNY     70  56  61 SW7       29.80R
SAUK CENTRE    FAIR      67  55  66 W13G20    29.81R
PAYNESVILLE    SUNNY     69  56  63 W10       29.82S
AITKIN         PTSUNNY   70  57  64 CALM      29.75F
PINE RIVER     MOSUNNY   66  57  72 SW5       29.80S
BRAINERD       SUNNY     69  57  65 W7        29.77F
STAPLES        SUNNY     66  54  63 SW3       29.78S
LONG PRAIRIE   FAIR      66  54  63 SW8       29.80S
LITTLE FALLS   SUNNY     68  55  64 CALM      29.79S
LITCHFIELD     SUNNY     72  59  64 W9        29.82S
BUFFALO        SUNNY     71  58  63 W8        29.81S
MAPLE LAKE     SUNNY     71  59  65 W7        29.82R
HUTCHINSON     CLOUDY    70  60  70 W13       29.83S
$$
MNZ037-044-045-052-053-261700-
   East Central Minnesota

CITY           SKY/WX    TMP DP  RH WIND       PRES   REMARKS
PRINCETON      MOSUNNY   73  61  64 SW7       29.80R
MORA           MOSUNNY   70  61  73 W6        29.80R
CAMBRIDGE      SUNNY     73  59  60 S5        29.78R
RUSH CITY      SUNNY     72  58  62 SW6       29.79R
MOOSE LAKE     CLOUDY    54  52  94 CALM      29.79R FOG
HINCKLEY       FAIR      68  61  77 S7        29.79S
CLOQUET        FOG       52  50  93 S3        29.80R VSB 3/4
MCGREGOR       CLOUDY    61  59  94 SW6       29.78F
$$
MNZ071>073-080-081-089-090-097-098-261700-
   Southwest Minnesota

CITY           SKY/WX    TMP DP  RH WIND       PRES   REMARKS
MONTEVIDEO     SUNNY     73  52  46 N9        29.84S
GRANITE FALLS  SUNNY     74  49  41 W12       29.84F
CANBY          SUNNY     74  53  46 W15       29.85S
MARSHALL       SUNNY     72  46  39 NW10      29.84S
REDWOOD FALLS  SUNNY     72  49  44 NW12      29.83S
OLIVIA         SUNNY     70  50  49 W9        29.82S
PIPESTONE      SUNNY     70  48  46 NW9       29.88R
WINDOM         SUNNY     72  46  40 CALM      29.86S
WORTHINGTON    MOSUNNY   71  48  43 N7        29.89S
JACKSON        SUNNY     70  50  49 NW7       29.88R
TRACY          SUNNY     73  46  37 NW12G17   29.85S
SLAYTON        SUNNY     70  45  40 N5        29.89R
$$
MNZ065>067-074>077-082>085-091>093-261700-
   South Central Minnesota

CITY           SKY/WX    TMP DP  RH WIND       PRES   REMARKS
MANKATO        SUNNY     70  57  64 W12       29.84S
NEW ULM        SUNNY     70  57  64 W10       29.84S
ST JAMES       SUNNY     66  50  55 W9        29.85F
FAIRMONT       SUNNY     72  50  46 NW8       29.86S
GLENCOE        SUNNY     70  61  73 W9        29.81S
FARIBAULT      SUNNY     72  61  68 SW10      29.84R
OWATONNA       SUNNY     70  61  73 SW16      29.84S
WASECA         SUNNY     70  61  73 SW10      29.86S
ALBERT LEA       N/A    N/A N/A N/A SW8       29.86S
$$
MNZ078>079-086>088-094>096-261700-
   Southeast Minnesota

CITY           SKY/WX    TMP DP  RH WIND       PRES   REMARKS
ROCHESTER      SUNNY     71  63  75 SW15      29.86R
RED WING       SUNNY     73  59  60 W7        29.80F
STANTON        SUNNY     72  60  64 SW10      29.81S
DODGE CENTER   SUNNY     72  59  64 W20       29.85S
WINONA         SUNNY     72  59  64 W6        29.84R
AUSTIN         SUNNY     70  57  64 W8G18     29.86S
PRESTON        SUNNY     71  57  62 W12G18    29.87S
$$
ABBREVIATIONS USED IN REMARKS
   TC - TEMPERATURES IN CELSIUS
  WCI - WIND CHILL INDEX
   HX - HEAT INDEX
  VSB - VISIBILITY
$$




USA.gov is the U.S. government's official web portal to all federal, state and local government web resources and services.